Trinidad, Colorado, United States (81082)
Lat: 37.17N, Lon: 104.5W
Wx Zone: COZ088
Local Info
Past Weather Observations for Monday, June 29, 2015

NOTE: This archive is for the closest National Weather Service station to Trinidad. Information may differ from the station used for current weather conditions.

Click here for Long-term Archive

Time Weather Temperature Dewpoint Humidity Pressure Winds Precip Visibility
23:54
Clear
66°F / 19°C 52°F / 11°C 60% 30.27 in
(1025 mb)
SW 8.1 mph
(SW 13 kph)
- 10SM
22:54
Clear
64°F / 18°C 52°F / 11°C 64% 30.27 in
(1025 mb)
Calm - 10SM
21:54
Clear
70°F / 21°C 52°F / 11°C 53% 30.27 in
(1025 mb)
SSW 12.7 mph
(SSW 20 kph)
- 10SM
20:54
Clear
72°F / 22°C 52°F / 11°C 50% 30.27 in
(1025 mb)
SSW 12.7 mph
(SSW 20 kph)
- 10SM
19:54
Mostly Cloudy
75°F / 24°C 52°F / 11°C 44% 30.24 in
(1024 mb)
SW 13.8 mph
(SW 22 kph)
- 10SM
18:54
Partly Cloudy
79°F / 26°C 52°F / 11°C 39% 30.24 in
(1024 mb)
ESE 4.6 mph
(ESE 7 kph)
- 10SM
17:54
Clear
82°F / 28°C 52°F / 11°C 35% 30.21 in
(1023 mb)
SE 6.9 mph
(SE 11 kph)
- 10SM
16:54
Clear
82°F / 28°C 52°F / 11°C 35% 30.21 in
(1023 mb)
E 8.1 mph
(E 13 kph)
- 10SM
15:54
Clear
84°F / 29°C 50°F / 10°C 31% 30.21 in
(1023 mb)
SE 9.2 mph
(SE 15 kph)
- 10SM
14:54
Clear
82°F / 28°C 52°F / 11°C 35% 30.24 in
(1024 mb)
E 13.8 mph
(E 22 kph)
- 10SM
13:54
Clear
86°F / 30°C 48°F / 9°C 27% 30.21 in
(1023 mb)
ENE 13.8 mph
(ENE 22 kph)
- 10SM
12:54
Clear
88°F / 31°C 45°F / 7°C 22% 30.24 in
(1024 mb)
ENE 12.7 mph
(ENE 20 kph)
- 10SM
11:54
Clear
84°F / 29°C 45°F / 7°C 25% 30.27 in
(1025 mb)
NNE 6.9 mph
(NNE 11 kph)
- 10SM
10:54
Clear
82°F / 28°C 45°F / 7°C 26% 30.27 in
(1025 mb)
Calm - 10SM
09:54
Clear
81°F / 27°C 48°F / 9°C 32% 30.27 in
(1025 mb)
E 11.5 mph
(E 19 kph)
- 10SM
08:54
Clear
77°F / 25°C 48°F / 9°C 36% 30.27 in
(1025 mb)
E 9.2 mph
(E 15 kph)
- 10SM
07:54
Clear
70°F / 21°C 52°F / 11°C 53% 30.27 in
(1025 mb)
N 3.5 mph
(N 6 kph)
- 10SM
06:54
Partly Cloudy
63°F / 17°C 50°F / 10°C 64% 30.27 in
(1025 mb)
SSW 8.1 mph
(SSW 13 kph)
- 10SM
05:54
Clear
61°F / 16°C 48°F / 9°C 63% 30.24 in
(1024 mb)
SSW 10.4 mph
(SSW 17 kph)
- 10SM
04:54
Clear
57°F / 14°C 48°F / 9°C 72% 30.24 in
(1024 mb)
W 8.1 mph
(W 13 kph)
- 10SM
03:54
Clear
57°F / 14°C 48°F / 9°C 72% 30.21 in
(1023 mb)
W 6.9 mph
(W 11 kph)
- 10SM
02:54
Partly Cloudy
57°F / 14°C 52°F / 11°C 82% 30.24 in
(1024 mb)
S 6.9 mph
(S 11 kph)
- 10SM
01:54
Mostly Cloudy
63°F / 17°C 52°F / 11°C 68% 30.24 in
(1024 mb)
SSW 8.1 mph
(SSW 13 kph)
- 10SM
00:54
Partly Cloudy
64°F / 18°C 52°F / 11°C 64% 30.27 in
(1025 mb)
E 8.1 mph
(E 13 kph)
0.00 in
(0.00 mm)
10SM
Time Weather Temperature Dewpoint Humidity Pressure Winds Precip Visibility


Weather for websites

WeatherForYou.com, LLC is not responsible for any damages or problems caused by this service. Current weather conditions are obtained from the closest station including government and personal stations which may have varying degrees of accuracy. Weather forecasts are derived from the NOAA NDFD. Like all things, this site belongs to Jesus Christ... He just trusts us to maintain it. If you have any questions or comments email webmaster@weatherforyou.com

Copyright © 2015, WeatherForYou.com LLC. All rights reserved.